When you browse on this site, cookies collect data to enhance your experience and personalize the content and advertising you see.
Visit our Privacy Policy to learn more. By continuing to use the site, you agree to this use of cookies and data.
  • In Hungary
  • List of Countries
  • For 7 days
  • Water Temperature
  • Satellite Maps
  • Weather Map
  • News
  • Weather Widgets
  • user-avatar
    Login

    Hourly Weather Chharra

    Today, 19 November, Monday

    Time Temperature Precipitation Wind Pressure Humidity
    00:00 +23°C° 0 mm 2 mps 744 mmHg 39%
    01:00 +21°C° 0 mm 2 mps 744 mmHg 40%
    02:00 +21°C° 0 mm 2 mps 744 mmHg 40%
    03:00 +20°C° 0 mm 2 mps 744 mmHg 41%
    04:00 +20°C° 0 mm 2 mps 744 mmHg 42%
    05:00 +20°C° 0 mm 2 mps 744 mmHg 43%
    06:00 +21°C° 0 mm 2 mps 745 mmHg 42%
    07:00 +21°C° 0 mm 2 mps 745 mmHg 41%
    08:00 +23°C° 0 mm 2 mps 746 mmHg 41%
    09:00 +25°C° 0 mm 2 mps 746 mmHg 36%
    10:00 +27°C° 0 mm 2 mps 746 mmHg 32%
    11:00 +29°C° 0 mm 3 mps 746 mmHg 28%
    12:00 +29°C° 0 mm 2 mps 746 mmHg 27%
    13:00 +30°C° 0 mm 2 mps 745 mmHg 26%
    14:00 +31°C° 0 mm 1 mps 745 mmHg 25%
    15:00 +29°C° 0 mm 1 mps 744 mmHg 27%
    16:00 +28°C° 0 mm 1 mps 744 mmHg 29%
    17:00 +27°C° 0 mm 1 mps 744 mmHg 31%
    18:00 +26°C° 0 mm 1 mps 745 mmHg 33%
    19:00 +26°C° 0 mm 1 mps 745 mmHg 34%
    20:00 +25°C° 0 mm 1 mps 745 mmHg 35%
    21:00 +25°C° 0 mm 1 mps 745 mmHg 37%
    22:00 +24°C° 0 mm 2 mps 745 mmHg 38%
    23:00 +23°C° 0 mm 2 mps 745 mmHg 40%

    Tomorrow, 20 November, Tuesday

    Time Temperature Precipitation Wind Pressure Humidity
    00:00 +23°C° 0 mm 1 mps 745 mmHg 41%
    01:00 +23°C° 0 mm 1 mps 745 mmHg 42%
    02:00 +22°C° 0 mm 1 mps 745 mmHg 44%
    03:00 +22°C° 0 mm 1 mps 745 mmHg 45%
    04:00 +20°C° 0 mm 0 mps 745 mmHg 45%
    05:00 +19°C° 0 mm 0 mps 745 mmHg 46%
    06:00 +20°C° 0 mm 0 mps 745 mmHg 45%
    07:00 +23°C° 0 mm 1 mps 746 mmHg 43%
    08:00 +24°C° 0 mm 1 mps 747 mmHg 42%
    09:00 +26°C° 0 mm 1 mps 746 mmHg 38%
    10:00 +28°C° 0 mm 2 mps 746 mmHg 33%
    11:00 +29°C° 0 mm 2 mps 746 mmHg 29%
    12:00 +30°C° 0 mm 3 mps 746 mmHg 28%
    13:00 +31°C° 0 mm 3 mps 745 mmHg 26%
    14:00 +33°C° 0 mm 3 mps 744 mmHg 25%
    15:00 +30°C° 0 mm 3 mps 744 mmHg 27%
    16:00 +29°C° 0 mm 3 mps 744 mmHg 29%
    17:00 +27°C° 0 mm 2 mps 743 mmHg 31%
    18:00 +27°C° 0 mm 2 mps 744 mmHg 31%
    19:00 +26°C° 0 mm 2 mps 744 mmHg 31%
    20:00 +25°C° 0 mm 2 mps 745 mmHg 31%
    21:00 +25°C° 0 mm 2 mps 745 mmHg 30%
    22:00 +24°C° 0 mm 2 mps 745 mmHg 30%
    23:00 +23°C° 0 mm 2 mps 745 mmHg 29%

    Day after tomorrow, 21 November, Wednesday

    Time Temperature Precipitation Wind Pressure Humidity
    00:00 +23°C° 0 mm 2 mps 745 mmHg 29%
    01:00 +21°C° 0 mm 2 mps 745 mmHg 29%
    02:00 +21°C° 0 mm 2 mps 745 mmHg 30%
    03:00 +20°C° 0 mm 2 mps 744 mmHg 30%
    04:00 +20°C° 0 mm 2 mps 744 mmHg 31%
    05:00 +19°C° 0 mm 2 mps 744 mmHg 31%
    06:00 +20°C° 0 mm 2 mps 745 mmHg 31%
    07:00 +21°C° 0 mm 3 mps 746 mmHg 31%
    08:00 +22°C° 0 mm 3 mps 746 mmHg 31%
    09:00 +25°C° 0 mm 3 mps 746 mmHg 27%
    10:00 +27°C° 0 mm 4 mps 746 mmHg 24%
    11:00 +29°C° 0 mm 4 mps 746 mmHg 20%
    12:00 +30°C° 0 mm 4 mps 745 mmHg 19%
    13:00 +30°C° 0 mm 4 mps 745 mmHg 18%
    14:00 +32°C° 0 mm 4 mps 744 mmHg 17%
    15:00 +29°C° 0 mm 3 mps 744 mmHg 20%
    16:00 +27°C° 0 mm 3 mps 744 mmHg 22%
    17:00 +26°C° 0 mm 2 mps 743 mmHg 24%
    18:00 +25°C° 0 mm 2 mps 744 mmHg 25%
    19:00 +24°C° 0 mm 1 mps 745 mmHg 26%
    20:00 +24°C° 0 mm 1 mps 745 mmHg 27%
    21:00 +23°C° 0 mm 1 mps 745 mmHg 27%
    22:00 +23°C° 0 mm 1 mps 745 mmHg 27%
    23:00 +22°C° 0 mm 1 mps 745 mmHg 28%

    22 November, Thursday

    Time Temperature Precipitation Wind Pressure Humidity
    00:00 +22°C° 0 mm 1 mps 745 mmHg 28%
    01:00 +21°C° 0 mm 1 mps 745 mmHg 29%
    02:00 +21°C° 0 mm 1 mps 745 mmHg 29%
    03:00 +20°C° 0 mm 1 mps 745 mmHg 30%
    04:00 +20°C° 0 mm 1 mps 745 mmHg 31%
    05:00 +19°C° 0 mm 1 mps 745 mmHg 31%
    06:00 +20°C° 0 mm 1 mps 746 mmHg 31%
    07:00 +21°C° 0 mm 1 mps 746 mmHg 30%
    08:00 +22°C° 0 mm 1 mps 747 mmHg 30%
    09:00 +24°C° 0 mm 1 mps 747 mmHg 27%
    10:00 +26°C° 0 mm 1 mps 747 mmHg 24%
    11:00 +28°C° 0 mm 1 mps 747 mmHg 21%
    12:00 +28°C° 0 mm 1 mps 746 mmHg 19%
    13:00 +29°C° 0 mm 2 mps 746 mmHg 18%
    14:00 +30°C° 0 mm 2 mps 745 mmHg 16%
    15:00 +28°C° 0 mm 2 mps 745 mmHg 18%
    16:00 +27°C° 0 mm 2 mps 745 mmHg 20%
    17:00 +26°C° 0 mm 1 mps 745 mmHg 22%
    18:00 +25°C° 0 mm 1 mps 745 mmHg 23%
    19:00 +24°C° 0 mm 1 mps 746 mmHg 24%
    20:00 +23°C° 0 mm 1 mps 746 mmHg 24%
    21:00 +23°C° 0 mm 1 mps 746 mmHg 25%
    22:00 +22°C° 0 mm 1 mps 747 mmHg 26%
    23:00 +22°C° 0 mm 1 mps 747 mmHg 27%

    23 November, Friday

    Time Temperature Precipitation Wind Pressure Humidity
    00:00 +20°C° 0 mm 2 mps 746 mmHg 27%
    01:00 +20°C° 0 mm 2 mps 746 mmHg 28%
    02:00 +20°C° 0 mm 2 mps 746 mmHg 28%
    03:00 +19°C° 0 mm 2 mps 746 mmHg 29%
    04:00 +19°C° 0 mm 2 mps 746 mmHg 30%
    05:00 +19°C° 0 mm 2 mps 746 mmHg 30%
    06:00 +19°C° 0 mm 3 mps 747 mmHg 30%
    07:00 +20°C° 0 mm 3 mps 747 mmHg 30%
    08:00 +21°C° 0 mm 3 mps 748 mmHg 30%
    09:00 +23°C° 0 mm 4 mps 748 mmHg 26%
    10:00 +26°C° 0 mm 5 mps 748 mmHg 22%
    11:00 +29°C° 0 mm 5 mps 748 mmHg 19%
    12:00 +29°C° 0 mm 6 mps 747 mmHg 19%
    13:00 +30°C° 0 mm 6 mps 746 mmHg 18%
    14:00 +32°C° 0 mm 7 mps 745 mmHg 18%
    15:00 +29°C° 0 mm 5 mps 745 mmHg 21%
    16:00 +28°C° 0 mm 4 mps 745 mmHg 24%
    17:00 +26°C° 0 mm 3 mps 745 mmHg 27%
    18:00 +25°C° 0 mm 3 mps 745 mmHg 28%
    19:00 +25°C° 0 mm 3 mps 745 mmHg 29%
    20:00 +24°C° 0 mm 3 mps 746 mmHg 30%
    21:00 +22°C° 0 mm 3 mps 746 mmHg 31%
    22:00 +22°C° 0 mm 3 mps 746 mmHg 32%
    23:00 +21°C° 0 mm 3 mps 745 mmHg 33%

    24 November, Saturday

    Time Temperature Precipitation Wind Pressure Humidity
    00:00 +21°C° 0 mm 4 mps 745 mmHg 34%
    01:00 +21°C° 0 mm 4 mps 745 mmHg 35%
    02:00 +20°C° 0 mm 4 mps 744 mmHg 35%
    03:00 +20°C° 0 mm 4 mps 744 mmHg 36%
    04:00 +19°C° 0 mm 4 mps 744 mmHg 36%
    05:00 +19°C° 0 mm 4 mps 744 mmHg 37%
    06:00 +20°C° 0 mm 4 mps 745 mmHg 36%
    07:00 +20°C° 0 mm 5 mps 745 mmHg 36%
    08:00 +21°C° 0 mm 5 mps 746 mmHg 35%
    09:00 +23°C° 0 mm 5 mps 746 mmHg 32%
    10:00 +26°C° 0 mm 5 mps 746 mmHg 28%
    11:00 +27°C° 0 mm 6 mps 746 mmHg 24%
    12:00 +28°C° 0 mm 5 mps 745 mmHg 23%
    13:00 +29°C° 0 mm 5 mps 745 mmHg 21%
    14:00 +30°C° 0 mm 5 mps 744 mmHg 20%
    15:00 +28°C° 0 mm 4 mps 744 mmHg 22%
    16:00 +27°C° 0 mm 3 mps 744 mmHg 24%
    17:00 +25°C° 0 mm 2 mps 744 mmHg 27%
    18:00 +24°C° 0 mm 2 mps 745 mmHg 27%
    19:00 +24°C° 0 mm 2 mps 745 mmHg 28%
    20:00 +23°C° 0 mm 2 mps 745 mmHg 29%
    21:00 +21°C° 0 mm 2 mps 745 mmHg 29%
    22:00 +21°C° 0 mm 2 mps 745 mmHg 30%
    23:00 +21°C° 0 mm 1 mps 745 mmHg 31%
    Show more